sat.trackr.live / text

‹ back to catalog

KUIPER-00142

NORAD 65766 · 2025-217E

PAYLOAD ACTIVE UNKNOWN

§ Identity

Operator
Country
US
Launch date
2025-09-25
Launch site
AFETR
Launch vehicle
Mass (kg)
RCS (m²)

External: N2YO · Heavens-Above · Gunter

§ Orbital elements

Epoch: 2026-09-19T15:17:22.059168Z

Period
97.30 min
Inclination
51.9034°
Eccentricity
0.0001264
Mean motion
14.79925260 rev/d
Perigee alt
628.7 km
Apogee alt
630.4 km
Semi-major
7,007.7 km
B*
4.9325e-5
RAAN
257.9429°
Arg perigee
33.1405°
Mean anomaly
326.9637°
Rev number
5,370

§ Raw data

KUIPER-001421 65766U 25217E   26262.63706087  .00000155  00000+0  49325-4 0  99992 65766  51.9034 257.9429 0001264  33.1405 326.9637 14.79925260 53707

JSON: /api/v1/satellites/65766 · /tle

For live sub-satellite position, see the globe view (requires WebGL).

§ Visibility from observer

Set your observer location to see the next 7 days of passes ≥ 10°. The values pass through the URL so the page stays shareable.

No JS? Fill the form by hand. The geolocation button needs JavaScript.